Location: Hoyos del Collado
(40.3594°N, 5.2003°W)
Time: 05:41:43
(UTC+00:00)

Cosmos 1241 Rocket - Visible Passes

Search period start: 16 July 2024 00:00
Search period end: 26 July 2024 00:00
Orbit: 936 x 1010 km, 65.8° (Epoch: 15 July)

Date Brightness Start Highest point End Pass type
(mag) Time Alt. Az. Time Alt. Az. Time Alt. Az.
16 Jul 4.3 00:21:47 10° NNW 00:28:16 84° WSW 00:28:41 78° S visible
16 Jul 6.5 02:12:07 10° WNW 02:13:15 12° W 02:13:15 12° W visible
16 Jul 5.6 22:59:27 10° NNW 23:05:19 35° NE 23:07:57 26° E visible
17 Jul 5.0 00:46:58 10° NW 00:52:31 44° W 00:52:31 44° W visible
17 Jul 6.7 21:38:01 10° N 21:41:32 15° NE 21:45:06 10° ENE visible
17 Jul 4.8 23:24:07 10° NNW 23:30:30 62° NE 23:31:49 52° ESE visible
18 Jul 6.0 01:12:42 10° WNW 01:16:23 22° W 01:16:23 22° W visible
18 Jul 6.2 22:02:07 10° N 22:07:14 24° NE 22:11:11 14° E visible
18 Jul 4.4 23:49:02 10° NW 23:55:29 75° WSW 23:55:45 73° SW visible
19 Jul 6.9 20:41:52 10° NNE 20:43:04 10° NNE 20:44:16 10° NE visible
19 Jul 5.4 22:26:36 10° NNW 22:32:37 40° NE 22:35:10 29° E visible
20 Jul 5.3 00:14:18 10° NW 00:19:44 39° W 00:19:44 39° W visible
20 Jul 6.5 21:05:01 10° N 21:08:58 17° NE 21:12:56 10° ENE visible
20 Jul 4.6 22:51:19 10° NNW 22:57:47 70° ENE 22:59:11 54° ESE visible
21 Jul 6.2 00:40:15 10° WNW 00:43:45 20° W 00:43:45 20° W visible
21 Jul 5.9 21:29:14 10° NNW 21:34:34 27° NE 21:38:41 15° E visible
21 Jul 4.5 23:16:18 10° NW 23:22:42 65° WSW 23:23:15 62° SW visible
22 Jul 5.2 21:53:46 10° NNW 21:59:55 45° NE 22:02:47 29° ESE visible
22 Jul 5.5 23:41:41 10° NW 23:47:22 34° WSW 23:47:22 34° WSW visible
23 Jul 6.4 20:32:02 10° N 20:36:22 18° NE 20:40:43 10° E visible
23 Jul 4.5 22:18:32 10° NNW 22:25:01 80° ENE 22:26:57 49° SE visible
24 Jul 6.3 00:07:53 10° WNW 00:11:32 17° W 00:11:32 17° W visible
24 Jul 5.7 20:56:21 10° NNW 21:01:55 30° NE 21:06:33 14° E visible
24 Jul 4.8 22:43:35 10° NW 22:49:53 57° WSW 22:51:09 49° SSW visible
25 Jul 5.0 21:20:56 10° NNW 21:27:12 51° NE 21:30:48 25° ESE visible
25 Jul 5.7 23:09:04 10° NW 23:14:33 30° WSW 23:15:24 29° WSW visible
